Weather History for Raton, NM

Change the Weather History Date:

Friday, February 15, 2013

  Actual Average (KTAD) Record (KTAD)
Temperature  
Mean Temperature 30 °F 35 °F  
Max Temperature 43 °F 50 °F 73 °F (2014)
Min Temperature 18 °F 20 °F -7 °F (1990)
Degree Days  
Heating Degree Days 34 30  
Month to date heating degree days 470  
Since 1 July heating degree days 3752  
Cooling Degree Days 0 0  
Month to date cooling degree days 0  
Year to date cooling degree days 0  
Moisture  
Dew Point 14 °F    
Average Humidity 62    
Maximum Humidity 85    
Minimum Humidity 23    
Precipitation  
Precipitation 0.00 in 0.02 in 0.11 in (1984)
Month to date precipitation 0.24  
Year to date precipitation 0.64  
Sea Level Pressure  
Sea Level Pressure 30.28 in    
Wind  
Wind Speed 7 mph (SSE)    
Max Wind Speed 15 mph    
Max Gust Speed -    
Visibility 10 miles    
Events      
T = Trace of Precipitation, MM = Missing Value Source: NWS Daily Summary

Daily Weather History Graph

Daily Weather History Graph

Search for Another Location

Airport:

Trip Planner

Search our weather history database for the weather conditions in past years. The results will help you decide how hot, cold, wet, or windy it might be!

Date:

Astronomy

Feb. 15, 2013 Rise Set
Actual Time 6:45 AM MST 5:38 PM MST
Civil Twilight 6:19 AM MST 6:05 PM MST
Nautical Twilight 5:49 AM MST 6:35 PM MST
Astronomical Twilight 5:19 AM MST 7:05 PM MST
Moon 9:33 AM MST (2/15) 11:31 PM MST (2/15)
Length of Visible Light 11h 45m
Length of Day
10h 52m
Waxing Crescent, 31% of the Moon is Illuminated
Feb 15
Waxing Crescent
Feb 17
First Quarter
Feb 25
Full
Mar 4
Last Quarter
Mar 11
New

Hourly Weather History & Observations

Time (MST) Temp. Windchill Dew Point Humidity Pressure Visibility Wind Dir Wind Speed Gust Speed Precip Events Conditions
12:05 AM 24.8 °F 15.3 °F 15.8 °F 69% 30.23 in 10.0 mi NE 9.2 mph - N/A   Overcast
12:53 AM 23.0 °F 13.1 °F 16.0 °F 74% 30.25 in 10.0 mi NE 9.2 mph - N/A   Overcast
1:53 AM 23.0 °F 15.8 °F 15.1 °F 72% 30.25 in 10.0 mi ESE 5.8 mph - N/A   Overcast
2:53 AM 23.0 °F 18.4 °F 15.1 °F 72% 30.23 in 10.0 mi SE 3.5 mph - N/A   Overcast
3:53 AM 23.0 °F 18.4 °F 16.0 °F 74% 30.24 in 10.0 mi SW 3.5 mph - N/A   Overcast
4:53 AM 23.0 °F 10.6 °F 18.0 °F 81% 30.25 in 10.0 mi SW 13.8 mph - N/A   Overcast
5:03 AM 23.0 °F 13.1 °F 17.6 °F 80% 30.22 in 10.0 mi SW 9.2 mph - N/A   Overcast
5:53 AM 21.9 °F 11.0 °F 18.0 °F 85% 30.29 in 10.0 mi South 10.4 mph - N/A   Overcast
6:53 AM 21.9 °F 12.5 °F 18.0 °F 85% 30.32 in 10.0 mi South 8.1 mph - N/A   Overcast
7:53 AM 23.0 °F 15.8 °F 18.0 °F 81% 30.33 in 10.0 mi SSW 5.8 mph - N/A   Overcast
8:39 AM 24.8 °F 19.1 °F 17.6 °F 74% 30.26 in 10.0 mi SSW 4.6 mph - N/A   Overcast
8:53 AM 24.1 °F 19.7 °F 18.0 °F 77% 30.34 in 10.0 mi SSW 3.5 mph - N/A   Overcast
9:48 AM 26.6 °F 22.6 °F 17.6 °F 69% 30.26 in 10.0 mi WSW 3.5 mph - N/A   Scattered Clouds
9:53 AM 28.0 °F 21.7 °F 18.0 °F 66% 30.32 in 10.0 mi WSW 5.8 mph - N/A   Partly Cloudy
10:53 AM 30.9 °F 26.2 °F 17.1 °F 57% 30.30 in 10.0 mi SSE 4.6 mph - N/A   Clear
11:53 AM 33.1 °F 26.9 °F 16.0 °F 50% 30.27 in 10.0 mi SW 6.9 mph - N/A   Mostly Cloudy
12:53 PM 35.1 °F 28.6 °F 19.0 °F 52% 30.24 in 10.0 mi SSW 8.1 mph - 0.00 in   Overcast
1:53 PM 37.0 °F 32.4 °F 16.0 °F 42% 30.22 in 10.0 mi ESE 5.8 mph - N/A   Overcast
2:53 PM 37.9 °F - 12.9 °F 36% 30.20 in 10.0 mi Calm Calm - N/A   Mostly Cloudy
3:53 PM 43.0 °F 39.5 °F 7.0 °F 23% 30.19 in 10.0 mi NNE 5.8 mph - N/A   Scattered Clouds
4:53 PM 39.9 °F 35.1 °F 7.0 °F 26% 30.22 in 10.0 mi ESE 6.9 mph - N/A   Partly Cloudy
5:53 PM 34.0 °F 28.0 °F 6.1 °F 31% 30.27 in 10.0 mi NNE 6.9 mph - N/A   Clear
6:53 PM 30.0 °F 23.2 °F 8.1 °F 40% 30.33 in 10.0 mi NE 6.9 mph - N/A   Clear
7:53 PM 28.0 °F 16.5 °F 12.9 °F 53% 30.36 in 10.0 mi NE 15.0 mph - N/A   Clear
8:53 PM 23.0 °F 12.4 °F 12.0 °F 63% 30.39 in 10.0 mi NE 10.4 mph - N/A   Clear
9:53 PM 21.0 °F 11.4 °F 10.9 °F 65% 30.39 in 10.0 mi NE 8.1 mph - N/A   Clear
10:53 PM 18.0 °F - 10.0 °F 71% 30.40 in 10.0 mi Calm Calm - N/A   Clear
11:53 PM 19.9 °F 14.9 °F 10.9 °F 68% 30.38 in 10.0 mi North 3.5 mph - N/A   Clear